#timestamp,LO_Frequency,Hit,StdDev 
1503684015.1,286046999.8,N,0.8
1503684035.8,286047002.6,Y,0.0
1503684055.7,286047002.0,P,0.9
1503684075.5,286047002.3,N,0.9
1503684095.4,286047002.4,N,0.9
1503684115.2,286047002.3,N,0.8
1503684135.0,286047002.4,N,0.8
1503684135.9,286047002.4,Y,0.0
1503684155.8,286047000.2,P,0.9
1503684175.6,286047000.8,N,0.7
1503684195.5,286047000.3,N,0.7
1503684215.3,286047000.3,N,0.7
1503684235.1,286046999.7,N,0.7
1503684255.9,286047002.4,Y,0.0
1503684275.7,286047000.4,P,0.1
1503684295.6,286047000.4,P,0.1
1503684315.4,286047000.1,N,0.2
1503684335.2,286047002.1,Y,0.0
1503684355.1,286047000.5,P,0.1
1503684356.0,286047000.5,P,0.1
1503684375.8,286047000.0,N,0.2
1503684395.7,286046999.8,N,0.3
1503684415.5,286047002.0,Y,0.0
1503684435.3,286047000.2,P,0.0
1503684455.2,286047002.3,P,1.0
1503684475.0,286047002.7,N,1.2
1503684475.9,286047002.7,N,1.2
1503684495.8,286047002.0,N,1.1
1503684515.6,286047002.2,N,1.0
1503684535.4,286047002.0,N,0.9
1503684555.3,286047001.6,N,0.9
1503684575.1,286047001.9,N,0.8
1503684595.8,286047001.8,N,0.8
1503684615.7,286047001.3,N,0.8
1503684635.5,286047003.7,Y,0.0
1503684655.4,286047002.7,P,0.5
1503684675.2,286046999.7,N,1.3
1503684695.0,286047002.5,N,1.2
1503684695.9,286047002.5,N,1.1
1503684715.8,286047002.6,N,1.1
1503684735.6,286047002.5,N,1.0
1503684755.5,286047002.4,N,0.9
1503684775.3,286047002.3,N,0.9
1503684795.1,286047002.1,N,0.8
1503684815.9,286047001.8,N,0.8
1503684835.7,286047001.8,N,0.8
1503684855.5,286047001.6,N,0.8
1503684875.4,286047001.5,N,0.7
1503684895.2,286047002.2,N,0.7
1503684915.1,286047002.0,N,0.7
1503684916.0,286047002.0,N,0.7
1503684935.8,286047001.7,N,0.7
1503684955.6,286047001.7,N,0.6
1503684975.5,286047001.3,N,0.6
1503684995.3,286682709.3,Y,0.0
1503685015.2,286047002.3,P,0.2
1503685035.0,286047002.6,P,0.3
1503685035.9,286047002.6,P,0.3
1503685055.8,286047002.8,Y,0.0
1503685075.6,286046998.3,P,2.0
1503685095.5,286046998.5,N,1.9
1503685115.3,286046998.5,N,1.7
1503685135.1,286046998.3,N,1.6
1503685155.9,286046998.4,N,1.5
1503685175.7,286046998.3,N,1.4
1503685195.5,286046998.3,N,1.3
1503685215.4,286047001.0,N,1.4
1503685235.2,286046998.5,N,1.4
1503685255.1,286047000.8,N,1.4
1503685256.0,286047000.8,N,1.4
1503685275.8,286047000.0,N,1.4
1503685295.7,286047000.0,N,1.3
1503685315.6,286047000.4,N,1.3
1503685335.4,286046998.1,N,1.3
1503685355.3,286046998.1,N,1.3
1503685375.1,286047000.7,N,1.3
1503685376.0,286047000.7,N,1.3
1503685395.8,286046998.1,N,1.3
1503685415.7,286046998.2,N,1.3
1503685435.5,286047000.7,N,1.3
1503685455.3,286047000.3,N,1.3
1503685475.2,286047000.1,N,1.3
1503685495.0,286046999.7,N,1.2
1503685495.9,286046999.7,N,1.2
1503685515.8,286046999.8,N,1.2
1503685535.6,286046999.9,N,1.2
1503685555.4,286047000.9,N,1.2
1503685575.3,286047002.7,N,1.3
1503685595.1,286047002.8,N,1.3
1503685615.9,286047002.3,N,1.4
1503685635.7,286046999.8,N,1.4
1503685655.5,286047002.7,N,1.4
1503685675.4,286047002.6,N,1.5
1503685695.2,286046999.8,N,1.4
1503685715.0,286047002.5,N,1.4
1503685716.0,286047002.5,N,1.4
1503685735.8,286047002.7,N,1.5
1503685755.6,286047002.6,N,1.5
1503685775.5,286047001.9,N,1.5
1503685795.3,286047001.6,N,1.5
1503685815.1,286047001.5,N,1.5
1503685835.9,286047001.7,N,1.5
1503685855.7,286047002.6,N,1.5
1503685875.6,286047002.1,N,1.5
1503685925.4,286047002.6,E,nan
1503685935.3,286047002.8,N,0.0
1503685955.2,286046998.4,P,2.2
1503685975.0,286046998.8,N,2.0
1503685975.9,286046998.8,N,1.8
1503685995.8,286046998.7,N,1.7
1503686015.6,286046998.3,N,1.6
1503686035.4,286046998.6,N,1.5
1503686055.3,286046998.8,N,1.4
1503686075.1,286046998.7,N,1.3
1503686095.9,286046998.3,N,1.3
1503686115.7,286046998.2,N,1.2
1503686135.5,286047001.2,N,1.3
1503686155.4,286046998.2,N,1.3
1503686175.2,286047000.7,N,1.3
1503686195.0,286046998.1,N,1.3
1503686196.0,286046998.1,N,1.3
1503686215.8,286047000.5,N,1.3
1503686235.6,286047001.0,N,1.3
1503686255.5,286047000.5,N,1.3
1503686275.3,286047000.9,N,1.3
1503686295.2,286047000.9,N,1.4
1503686315.9,286047001.1,N,1.4
1503686335.7,286046998.1,N,1.4
1503686355.6,286046998.2,N,1.4
1503686375.4,286046998.1,N,1.4
1503686395.2,286047001.0,N,1.4
1503686415.1,286046998.2,N,1.4
1503686416.0,286046998.2,N,1.4
1503686435.8,286047000.9,N,1.4
1503686455.7,286047000.6,N,1.4
1503686475.5,286047000.9,N,1.2
1503686495.3,286047000.4,N,1.2
1503686515.2,286046999.9,N,1.2
1503686535.0,286047000.1,N,1.2
1503686535.9,286047000.1,N,1.2
1503686555.7,286047000.9,N,1.2
1503686575.6,286047000.4,N,1.2
1503686595.4,286047000.5,N,1.2
1503686615.3,286047000.0,N,1.2
1503686635.1,286047000.1,N,1.2
1503686655.8,286046999.7,N,1.1
1503686675.7,286047002.7,N,1.2
1503686695.5,286046999.7,N,1.2
1503686715.4,286047002.6,N,1.3
1503686735.2,286047002.2,N,1.3
1503686755.0,286047002.6,N,1.3
1503686755.9,286047002.6,N,1.3
1503686775.8,286046999.7,N,1.3
1503686795.6,286047002.8,N,1.4
1503686815.4,286047002.8,N,1.5
1503686835.3,286046999.8,N,1.5
1503686855.1,286046999.8,N,1.5
1503686875.9,286046999.9,N,1.4
1503686895.7,286047000.4,N,1.3
1503686915.5,286047000.3,N,1.2
1503686935.4,286047000.0,N,1.2
1503686955.3,286047000.9,N,1.2
1503686975.2,286047000.1,N,1.1
1503686995.0,286047000.2,N,1.1
1503686995.9,286047000.2,N,1.1
1503687015.8,286047000.2,N,1.1
1503687035.6,286046999.7,N,1.1
1503687055.4,286047002.6,N,1.1
1503687075.3,286046999.8,N,1.1
1503687095.1,286047002.5,N,1.2
1503687115.9,286047002.8,N,1.2
1503687135.7,286047000.1,N,1.2
1503687155.5,286047002.2,N,1.3
1503687175.4,286047002.3,N,1.3
1503687195.2,286046999.8,N,1.3
1503687215.1,286047002.5,N,1.3
1503687216.0,286047002.5,N,1.3
1503687235.8,286047002.5,N,1.3
1503687255.6,286046999.7,N,1.3
1503687275.5,286047002.7,N,1.3
1503687295.3,286047002.6,N,1.3
1503687315.2,286047002.3,N,1.3
1503687335.9,286047002.8,N,1.3
1503687355.7,286046999.8,N,1.3
1503687375.6,286046999.8,N,1.3
1503687395.4,286047000.1,N,1.2
1503687415.3,286047002.8,N,1.3
1503687435.1,286047002.3,N,1.3
1503687436.0,286047002.3,N,1.3
1503687455.8,286047002.8,N,1.3
1503687475.7,286047001.5,N,1.2
1503687495.5,286047001.4,N,1.2
1503687515.3,286047002.6,N,1.2
1503687535.2,286047001.8,N,1.2
1503687555.0,286047001.4,N,1.2
1503687555.9,286047001.4,N,1.2
1503687575.8,286047001.9,N,1.1
1503687595.6,286047002.1,N,1.1
